Weather in Klimovka

Russia / Samara Oblast     53°29′18″N   49°00′37″E
temp.,
°C
wind,
m/s
gust,
m/s
humid.,
%
clouds,
%
prec.,
mm/h
press.,
hPa
HPBL,
m
27 february, sat
sat2701:00−7s81495100 2.8 1000376
04:00−3ssw379899 3.2 999155
07:00+1wsw51191100 0.1 997520
10:00+1sw59100100 0.2 997408
13:00+1wsw59100100 0.3 997411
16:00+1wsw5999100 0.3 997431
19:000wsw3698100 0.4 997224
22:00−7nnw71391100 1.6 999398
28 february, sun
sun2801:00−10nnw7149297 0.1 1001449
04:00−13nnw7149098 0.2 1004444
07:00−15nnw5129198 0.0 1006388
10:00−15nnw6119089 0.0 1008400
13:00−13nnw698990 0.0 1010471
16:00−13nnw598894 0.0 1011485
19:00−17nnw489143 0.0 1013160
22:00−18nnw469328 0.0 1016119
1 march, mon
mon101:00−18nw349689 0.0 101782
04:00−20nw349685 0.0 101949
07:00−21nnw349536 0.0 102157
10:00−19n379329 0.0 1023262
13:00−16n359159 0.0 1023315
16:00−15nne239244 0.0 1023188
19:00−20nne119936 0.0 102420
22:00−20ssw129846 0.0 102420
2 march, tue
tue201:00−19sw33940 0.0 102223
04:00−18ssw46976 0.0 102094
07:00−16ssw599476 0.0 1017194
10:00−13ssw7119489 0.1 1013322
13:00−7ssw81393100 0.9 1009514
16:00−3ssw81394100 1.6 1005636
19:00−2sw71196100 1.3 1002530
22:00−1sw5997100 2.1 1001303
3 march, wed
wed301:00−3wnw4794100 0.2 1000137
04:00−3wnw499293 0.2 1000234
07:00−4nw5129099 0.6 1001538
10:00−4nnw5139098 0.6 1003579
13:00−2nnw7118672 0.0 1005900
16:00−2nnw7108585 0.1 1006893
19:00−6nw349485 0.0 100766
22:00−5nw5129291 0.1 1010438